Location: Bright Sky Observatory
(40.7821°N, 74.2425°W)
Time: 19:46:40
(UTC-04:00)

Amateur Radio Satellites - All Passes

Search period start: 02 September 2014 19:16
Search period end: 03 September 2014 19:16
Location: Bright Sky Observatory, 40.7821°N, 74.2425°W

Satellite Date Start Highest point End Downlink Frequencies (MHz)
Time Altitude Azimuth
STRAND 1 02 Sep 19:53:19 19:58:27 85° 104° (ESE) 20:03:34 ?
HO-68 02 Sep 20:30:22 20:37:12 52° 67° (ENE) 20:44:04 435.675 MHz FM
UKube-1 02 Sep 20:52:41 20:56:27 30° 69° (ENE) 21:00:14 145.840 MHz, 145.915 MHz
Oscar 11 02 Sep 20:56:03 20:59:14 20° 66° (ENE) 21:02:27 145.825 FM, Beacon 2401.500 USB
MaSat-1 02 Sep 21:14:17 21:17:32 19° 49° (NE) 21:20:29 437.345 MHz
Saudisat 1A 02 Sep 21:18:17 21:21:51 25° 113° (ESE) 21:25:27 436.775 MHz
FUNcube-1 02 Sep 21:30:56 21:33:50 18° 66° (ENE) 21:36:47 145.950 - 145.970 MHz USB
STRAND 1 02 Sep 21:34:51 21:36:55 13° 301° (WNW) 21:38:59 ?
KITSAT 1 02 Sep 21:50:06 21:56:09 24° 104° (ESE) 22:02:12 435.175 FM
HO-68 02 Sep 22:19:03 22:25:08 30° 264° (W) 22:31:16 435.675 MHz FM
UKube-1 02 Sep 22:29:08 22:32:39 24° 264° (W) 22:36:11 145.840 MHz, 145.915 MHz
Oscar 11 02 Sep 22:31:11 22:35:11 36° 263° (W) 22:39:13 145.825 FM, Beacon 2401.500 USB
MaSat-1 02 Sep 22:50:38 22:54:51 43° 251° (WSW) 22:58:28 437.345 MHz
Saudisat 1A 02 Sep 22:57:13 23:01:16 35° 310° (NW) 23:05:21 436.775 MHz
FUNcube-1 02 Sep 23:06:01 23:09:56 38° 262° (W) 23:13:57 145.950 - 145.970 MHz USB
KITSAT 1 02 Sep 23:42:39 23:50:44 74° 302° (WNW) 23:58:52 435.175 FM
Sapphire 02 Sep 23:55:45 23:58:25 14° 39° (NE) 00:01:05 437.095 MHz 1200 baud AX-25 AFSK
PCSat 03 Sep 00:23:54 00:28:06 22° 46° (NE) 00:32:16 145.825 MHz
Oscar 16 03 Sep 01:06:53 01:07:57 11° 88° (E) 01:09:01 437.025 USB, Beacon 2401.1428
Sapphire 03 Sep 01:37:23 01:42:50 72° 60° (ENE) 01:48:14 437.095 MHz 1200 baud AX-25 AFSK
KITSAT 1 03 Sep 01:41:43 01:47:36 21° 326° (NW) 01:53:31 435.175 FM
JAS-1B 03 Sep 02:01:53 02:05:43 17° 87° (E) 02:09:19 435.800 - 435.900 CW/SSB
PCSat 03 Sep 02:06:35 02:11:56 61° 245° (WSW) 02:17:15 145.825 MHz
Oscar 19 03 Sep 02:07:23 02:12:19 42° 98° (E) 02:17:13 437.125 CW, 437.150 USB
AO-Echo 03 Sep 02:08:31 02:11:52 19° 93° (E) 02:15:13 ?
SO-50 03 Sep 02:11:14 02:14:30 20° 111° (ESE) 02:17:49 436.795 FM
Gurwin Techsat 1B 03 Sep 02:27:48 02:30:04 13° 89° (E) 02:32:19 435.225 FM
Oscar 10/S400 03 Sep 02:36:35 03:46:33 42° 227° (SW) 09:02:55 145.825 - 145.975 CW/USB, Beacon 145.810 USB
Oscar 16 03 Sep 02:42:43 02:47:57 86° 285° (WNW) 02:53:08 437.025 USB, Beacon 2401.1428
ITAMSAT 1 03 Sep 02:47:34 02:52:31 43° 99° (E) 02:57:26 435.822 SSB
Uribyol 2 03 Sep 02:56:30 03:01:38 57° 101° (E) 03:06:45 436.500 FM
TMSAT-1 03 Sep 03:15:16 03:19:44 27° 95° (E) 03:24:10 436.925 FM
AO-27 03 Sep 03:17:24 03:22:37 85° 104° (ESE) 03:27:49 436.795 MHz FM
Sapphire 03 Sep 03:22:35 03:25:35 15° 256° (WSW) 03:28:35 437.095 MHz 1200 baud AX-25 AFSK
OPAL 03 Sep 03:41:18 03:45:40 30° 64° (ENE) 03:50:06 ?
AO-Echo 03 Sep 03:46:24 03:50:50 42° 289° (WNW) 03:55:17 ?
KITSAT 1 03 Sep 03:46:25 03:46:56 10° 356° (N) 03:47:26 435.175 FM
Oscar 19 03 Sep 03:47:17 03:51:24 24° 295° (WNW) 03:55:28 437.125 CW, 437.150 USB
SO-50 03 Sep 03:50:27 03:54:44 44° 308° (NW) 03:59:08 436.795 FM
JAS-1B 03 Sep 03:50:44 03:57:15 65° 289° (WNW) 04:02:58 435.800 - 435.900 CW/SSB
UOSAT-12 03 Sep 03:51:43 03:54:43 17° 109° (ESE) 03:57:46 437.025 FM, 437.400 FM
Gurwin Techsat 1B 03 Sep 04:05:17 04:10:36 77° 285° (WNW) 04:15:53 435.225 FM
Oscar 16 03 Sep 04:24:49 04:26:29 12° 302° (WNW) 04:28:08 437.025 USB, Beacon 2401.1428
ITAMSAT 1 03 Sep 04:27:41 04:31:43 24° 295° (WNW) 04:35:46 435.822 SSB
AO-7 03 Sep 04:33:04 04:40:30 35° 97° (E) 04:47:51 29.400 - 29.500 MHz
Uribyol 2 03 Sep 04:37:07 04:40:39 19° 297° (WNW) 04:44:11 436.500 FM
Uosat F 03 Sep 04:40:00 04:44:24 30° 97° (E) 04:48:48 435.120 FM
TMSAT-1 03 Sep 04:54:52 04:59:42 37° 291° (WNW) 05:04:32 436.925 FM
AO-27 03 Sep 04:59:10 05:01:24 13° 301° (WNW) 05:03:37 436.795 MHz FM
OPAL 03 Sep 05:19:51 05:24:26 34° 261° (W) 05:29:05 ?
UOSAT-12 03 Sep 05:29:54 05:34:25 54° 306° (NW) 05:39:03 437.025 FM, 437.400 FM
STRAND 1 03 Sep 05:32:42 05:35:34 15° 61° (ENE) 05:38:25 ?
JAS-2 03 Sep 05:35:29 05:37:50 13° 91° (E) 05:40:14 435.800 - 435.900 CW/SSB, 435.910 FM
KITSAT 1 03 Sep 05:41:49 05:46:39 17° 27° (NNE) 05:51:28 435.175 FM
Saudisat 1A 03 Sep 05:44:51 05:48:18 22° 45° (NE) 05:51:45 436.775 MHz
Gurwin Techsat 1B 03 Sep 05:48:49 05:49:39 10° 303° (WNW) 05:50:29 435.225 FM
Uosat F 03 Sep 06:18:47 06:23:08 31° 293° (WNW) 06:27:28 435.120 FM
AO-7 03 Sep 06:25:33 06:33:29 52° 296° (WNW) 06:41:23 29.400 - 29.500 MHz
Hamsat 03 Sep 06:37:18 06:41:32 51° 99° (E) 06:45:43 145.90 MHz
RS-15 03 Sep 06:49:01 06:59:28 50° 111° (ESE) 07:09:44 29.354 - 29.394 USB, Beacon 29.352 USB
STRAND 1 03 Sep 07:09:06 07:14:10 69° 258° (WSW) 07:19:15 ?
UOSAT-12 03 Sep 07:15:00 07:15:39 10° 327° (NNW) 07:16:19 437.025 FM, 437.400 FM
JAS-2 03 Sep 07:18:05 07:23:24 77° 285° (WNW) 07:29:12 435.800 - 435.900 CW/SSB, 435.910 FM
Saudisat 1A 03 Sep 07:23:53 07:28:06 46° 243° (WSW) 07:32:18 436.775 MHz
KITSAT 1 03 Sep 07:36:16 07:44:10 53° 53° (NE) 07:51:59 435.175 FM
SO-67 03 Sep 08:07:00 08:10:28 84° 102° (ESE) 08:13:55 435.3500 MHz FM
Hamsat 03 Sep 08:14:36 08:17:03 15° 296° (WNW) 08:19:29 145.90 MHz
AO-7 03 Sep 08:21:49 08:24:21 12° 317° (NW) 08:26:53 29.400 - 29.500 MHz
ISS 03 Sep 08:59:49 09:02:53 36° 137° (SE) 09:05:58 145.800 FM
RS-15 03 Sep 09:01:10 09:11:47 51° 313° (NW) 09:22:22 29.354 - 29.394 USB, Beacon 29.352 USB
KITSAT 1 03 Sep 09:32:07 09:39:16 36° 252° (WSW) 09:46:23 435.175 FM
HO-68 03 Sep 09:45:32 09:52:32 54° 101° (ESE) 09:59:30 435.675 MHz FM
UKube-1 03 Sep 10:16:37 10:20:54 56° 101° (E) 10:25:10 145.840 MHz, 145.915 MHz
Oscar 11 03 Sep 10:18:48 10:22:56 40° 98° (E) 10:27:01 145.825 FM, Beacon 2401.500 USB
ISS 03 Sep 10:36:39 10:39:39 30° 334° (NNW) 10:42:39 145.800 FM
SO-50 03 Sep 10:42:05 10:45:50 22° 44° (NE) 10:49:37 436.795 FM
FUNcube-1 03 Sep 10:54:52 10:59:12 40° 98° (E) 11:03:32 145.950 - 145.970 MHz USB
PANSAT 03 Sep 11:07:33 11:09:08 12° 173° (S) 11:10:43 not established
RS-15 03 Sep 11:19:47 11:27:38 22° 345° (NNW) 11:35:33 29.354 - 29.394 USB, Beacon 29.352 USB
HO-68 03 Sep 11:33:51 11:39:52 30° 299° (WNW) 11:45:52 435.675 MHz FM
UKube-1 03 Sep 11:54:23 11:56:37 14° 297° (WNW) 11:58:51 145.840 MHz, 145.915 MHz
Oscar 11 03 Sep 11:55:46 11:58:49 19° 294° (WNW) 12:01:50 145.825 FM, Beacon 2401.500 USB
ISS 03 Sep 12:15:27 12:17:11 13° 354° (N) 12:18:56 145.800 FM
UOSAT-12 03 Sep 12:20:30 12:23:49 18° 42° (NE) 12:27:05 437.025 FM, 437.400 FM
SO-50 03 Sep 12:22:01 12:26:42 54° 242° (WSW) 12:31:25 436.795 FM
Oscar 16 03 Sep 12:22:30 12:25:47 17° 62° (ENE) 12:29:05 437.025 USB, Beacon 2401.1428
FUNcube-1 03 Sep 12:31:57 12:35:18 20° 294° (WNW) 12:38:40 145.950 - 145.970 MHz USB
MaSat-1 03 Sep 12:36:37 12:41:32 77° 113° (ESE) 12:46:42 437.345 MHz
Uribyol 2 03 Sep 12:39:27 12:40:42 11° 58° (ENE) 12:41:57 436.500 FM
JAS-1B 03 Sep 12:44:06 12:51:11 25° 59° (ENE) 12:57:36 435.800 - 435.900 CW/SSB
PANSAT 03 Sep 12:46:55 12:48:33 12° 186° (S) 12:50:11 not established
AO-27 03 Sep 12:58:30 13:01:37 16° 61° (ENE) 13:04:44 436.795 MHz FM
AO-Echo 03 Sep 13:21:08 13:25:14 26° 67° (ENE) 13:29:14 ?
Oscar 19 03 Sep 13:23:55 13:28:59 60° 73° (ENE) 13:34:06 437.125 CW, 437.150 USB
RS-15 03 Sep 13:37:03 13:45:29 24° 22° (NNE) 13:54:02 29.354 - 29.394 USB, Beacon 29.352 USB
AO-7 03 Sep 13:47:12 13:48:42 11° 42° (NE) 13:50:12 29.400 - 29.500 MHz
Gurwin Techsat 1B 03 Sep 13:48:02 13:51:57 21° 64° (ENE) 13:55:52 435.225 FM
ISS 03 Sep 13:52:46 13:54:58 16° 14° (NNE) 13:57:09 145.800 FM
Oscar 16 03 Sep 13:59:31 14:04:36 62° 259° (WSW) 14:09:46 437.025 USB, Beacon 2401.1428
UOSAT-12 03 Sep 13:59:44 14:04:27 68° 240° (WSW) 14:09:04 437.025 FM, 437.400 FM
ITAMSAT 1 03 Sep 14:05:19 14:10:25 65° 73° (ENE) 14:15:32 435.822 SSB
Uribyol 2 03 Sep 14:14:11 14:19:19 83° 75° (ENE) 14:24:31 436.500 FM
MaSat-1 03 Sep 14:15:53 14:19:09 17° 312° (NW) 14:22:28 437.345 MHz
JAS-1B 03 Sep 14:31:08 14:40:55 84° 255° (WSW) 14:49:32 435.800 - 435.900 CW/SSB
AO-27 03 Sep 14:35:27 14:40:35 66° 258° (WSW) 14:45:44 436.795 MHz FM
TMSAT-1 03 Sep 14:35:42 14:40:37 41° 70° (ENE) 14:45:33 436.925 FM
AO-Echo 03 Sep 14:59:20 15:03:52 34° 263° (W) 15:08:17 ?
Oscar 19 03 Sep 15:05:33 15:08:43 16° 269° (W) 15:11:53 437.125 CW, 437.150 USB
PCSat 03 Sep 15:06:47 15:10:18 18° 105° (ESE) 15:13:49 145.825 MHz
Gurwin Techsat 1B 03 Sep 15:26:24 15:31:32 50° 260° (W) 15:36:43 435.225 FM
ISS 03 Sep 15:28:57 15:32:15 57° 33° (NNE) 15:35:32 145.800 FM
AO-7 03 Sep 15:31:36 15:39:27 48° 63° (ENE) 15:47:17 29.400 - 29.500 MHz
ITAMSAT 1 03 Sep 15:47:30 15:50:21 15° 269° (W) 15:53:12 435.822 SSB
RS-15 03 Sep 15:49:45 16:00:43 61° 51° (NE) 16:12:04 29.354 - 29.394 USB, Beacon 29.352 USB
Uosat F 03 Sep 15:52:58 15:57:39 42° 70° (ENE) 16:02:21 435.120 FM
Uribyol 2 03 Sep 15:58:02 15:59:25 11° 271° (W) 16:00:48 436.500 FM
TMSAT-1 03 Sep 16:16:25 16:20:40 24° 266° (W) 16:24:56 436.925 FM
Sapphire 03 Sep 16:18:44 16:24:05 71° 116° (ESE) 16:29:30 437.095 MHz 1200 baud AX-25 AFSK
JAS-1B 03 Sep 16:25:57 16:32:08 19° 271° (W) 16:37:58 435.800 - 435.900 CW/SSB
PCSat 03 Sep 16:47:48 16:53:09 63° 302° (WNW) 16:58:33 145.825 MHz
ISS 03 Sep 17:06:32 17:08:40 16° 229° (SW) 17:10:48 145.800 FM
AO-7 03 Sep 17:24:40 17:32:18 39° 261° (W) 17:39:58 29.400 - 29.500 MHz
OPAL 03 Sep 17:29:17 17:34:30 65° 104° (ESE) 17:39:38 ?
Hamsat 03 Sep 17:30:21 17:34:17 35° 71° (ENE) 17:38:16 145.90 MHz
JAS-2 03 Sep 17:30:22 17:35:55 42° 70° (ENE) 17:40:59 435.800 - 435.900 CW/SSB, 435.910 FM
Uosat F 03 Sep 17:32:45 17:36:35 22° 266° (W) 17:40:27 435.120 FM
RS-15 03 Sep 18:02:39 18:12:36 40° 252° (WSW) 18:22:57 29.354 - 29.394 USB, Beacon 29.352 USB
Sapphire 03 Sep 18:04:11 18:08:04 20° 315° (NW) 18:11:59 437.095 MHz 1200 baud AX-25 AFSK
PCSat 03 Sep 18:35:36 18:37:42 12° 322° (NW) 18:39:48 145.825 MHz
SO-67 03 Sep 18:40:07 18:43:00 25° 71° (ENE) 18:45:53 435.3500 MHz FM
Hamsat 03 Sep 19:07:09 19:10:20 20° 267° (W) 19:13:34 145.90 MHz
OPAL 03 Sep 19:09:29 19:12:50 18° 301° (WNW) 19:16:10 ?
